Address 0x05b9b543328d4c797e1eec747efc65d97de542f2 5

Overview

Pondsama: Deployer
Balance:
4.62512101882 MOVR

MOVR Value:
$30.47 (@ $6.59/MOVR)
Txn Hash Method
Block
From
To
Value [Txn Fee]
0x5e9229cd63b87797eb1df716677c4540b201fbe30d612d8484dddceaf29b1fe10x6080604038400042023-03-17 18:12:1872 days 6 hrs agoPondsama: DeployerOUT Contract Creation0 MOVR0.00132588
0x45456ebdf21300cc3cb8e6ac8d9abc10db27929da6c5fc81725b4a95af25a90b0x60a0604038400022023-03-17 18:11:5472 days 6 hrs agoPondsama: DeployerOUT Contract Creation0 MOVR0.009813504
0xcb6676104495baa2858146bfa476410f0b9d98b0b93a95c333f73bb948ce0f3c0x60a0604027960282022-10-17 22:41:00223 days 1 hr agoPondsama: DeployerOUT Contract Creation0 MOVR0.0075931025
0x2f6c4caf9ac6551c3b3cc828240b52d2197c23e56664393a272c675bcb20cbda0x6080604027260162022-10-07 21:15:18233 days 3 hrs agoPondsama: DeployerOUT Contract Creation0 MOVR0.003610227
0xa79d8976e4f8ce4100db1915948f6a59e0767c5f1da0f110249ddb8cbb8427470x6080604027260152022-10-07 21:15:00233 days 3 hrs agoPondsama: DeployerOUT Contract Creation0 MOVR0.001397229
0x1455e9139fc65f699587beea1659acd8c680b69425d8916431328569868e0cb10x6080604027260132022-10-07 21:14:36233 days 3 hrs agoPondsama: DeployerOUT Contract Creation0 MOVR0.001035648
0x4069d878bf616071dd1c4326bef9a80054c6d699da9fc656fb2521cd003955940x60a0604027260112022-10-07 21:14:12233 days 3 hrs agoPondsama: DeployerOUT Contract Creation0 MOVR0.005740518
0x642384f71cb7dd3075614c4699e862b5560939381ab3bbb7bda3cba6b25f303f0x6080604027260092022-10-07 21:13:48233 days 3 hrs agoPondsama: DeployerOUT Contract Creation0 MOVR0.001010514
0x7eb3d2ae8f05437419f9192993943fd375651cb8d05f551d5430344c7edd1bc00x6080604027260072022-10-07 21:13:24233 days 3 hrs agoPondsama: DeployerOUT Contract Creation0 MOVR0.005777784
0xa9345f92d786fdfb5f0cfbcaabc828b61b560e7ef4f4668f1447bb482cfb0a9b0x1d41d7da27191442022-10-06 21:42:06234 days 2 hrs agoPondsama: DeployerOUT 0xae85f7b56a9cefc660097298e9bfddec11f39d190 MOVR0.00185322
0x78fb57c55e4ec700ebed714711f3461627b689635188b88425730c6f551b47e20x60c0604027191422022-10-06 21:41:42234 days 2 hrs agoPondsama: DeployerOUT Contract Creation0 MOVR0.01244134
0xc1f5489592e76015031a78ada394507c8128249979211e961c7c7cd0f59cdaa4Mint27179122022-10-06 17:24:36234 days 7 hrs agoPondsama: DeployerOUT 0x6678c84e64e25be530f06b962cc79ccaed51dc370 MOVR0.000086097
0x2c39ca91013563ff31b53d8dc54da4aad32c567b77832883c49ebf3020616eed0x6080604027090982022-10-05 10:56:30235 days 13 hrs agoPondsama: DeployerOUT Contract Creation0 MOVR0.003016881
0xb4ae29e1a219a5906bd61aae5387906a8dcb83baf36ff9b958bf191df703bd8f0x6080604027090962022-10-05 10:56:06235 days 13 hrs agoPondsama: DeployerOUT Contract Creation0 MOVR0.001397193
0x1719b4a5eb526035208a65e7a5e997b35e63f3839850c44de0d41587d64730bc0x60a0604027090942022-10-05 10:55:42235 days 13 hrs agoPondsama: DeployerOUT Contract Creation0 MOVR0.016000749
0x1822f5c08d6ecf4c378775685f87aa835702e217d28aa4b2a2ec15a137d6da100x6080604027090922022-10-05 10:55:18235 days 13 hrs agoPondsama: DeployerOUT Contract Creation0 MOVR0.001035648
0x47972723c3a7ebed12851e5bab43a9e422659f8acc99af950d076aecfb637ff70x60a0604027090902022-10-05 10:54:54235 days 13 hrs agoPondsama: DeployerOUT Contract Creation0 MOVR0.005672034
0x249c07c0bc401a61e2b1fdef6b9792c32929555a50e994c739d776cb613cc2170x6080604027090882022-10-05 10:54:30235 days 13 hrs agoPondsama: DeployerOUT Contract Creation0 MOVR0.000893043
0x0633d2da0369e68a545c7fdb099398d435e711e808eed8ac30035ce5d169a30a0x6080604027090862022-10-05 10:54:06235 days 13 hrs agoPondsama: DeployerOUT Contract Creation0 MOVR0.004865997
0x57a8c14ed29332514603c62b5ee9dfeaeba7d6d6fecb8899192d6bd021107bbfMint27058992022-10-04 23:52:36236 days 38 mins agoPondsama: DeployerOUT 0x6678c84e64e25be530f06b962cc79ccaed51dc370 MOVR0.000205497
0xc2e58400f076821039e2c22591a47605e18e5b1a327c549f5466eed1ae8ad7010x6080604027058852022-10-04 23:49:42236 days 41 mins agoPondsama: DeployerOUT Contract Creation0 MOVR0.004257603
0xdaa4d243558417355e5ff02572bc1fe0810dd59a39eef57956c6939faba3109d0x6080604027058842022-10-04 23:49:24236 days 41 mins agoPondsama: DeployerOUT Contract Creation0 MOVR0.004432455
0xbb888096ddb3c49df996df1c8101b37f75f9840f3611e5acdc893572a8aafeec0x6080604027058822022-10-04 23:49:00236 days 41 mins agoPondsama: DeployerOUT Contract Creation0 MOVR0.002376231
0x928583342e64ce741a6aefe4e87562a829cfb8007beade01e6c5940874af7150Mint27058002022-10-04 23:32:06236 days 58 mins agoPondsama: DeployerOUT 0x53f1095d1ce87a868ce203a1752e4e1f55e18c2b0 MOVR0.000085998
0xf24e1fe63d98695301b491296124e97974274c4a97ad6b488e13eddad89b0cbcMint27048892022-10-04 20:23:36236 days 4 hrs agoPondsama: DeployerOUT 0x53f1095d1ce87a868ce203a1752e4e1f55e18c2b0 MOVR0.000085998
[ Download CSV Export 

OVERVIEW

Deployer address for Pondsama.

Latest 11 internal transactions
Parent Txn Hash Block From To Value
0xf8d123bf887b8682cbd1f897c6af19f6c45501ad6b74d6bfec07b3901c39a28a23956312022-08-17 14:06:42284 days 10 hrs ago 0xa0a0773385bf8facdf11c70260db6a84107f20eaPondsama: Deployer0.00001 MOVR
0x526f20a38177482696dd776297462b90cecb4f01968f0b4288fefaa7485e543b23917062022-08-16 21:39:36285 days 2 hrs ago 0xf893ddffe93ab3bd80f3b1a730ac649c80706bd9Pondsama: Deployer0.00001 MOVR
0x37d2a8b3eaf3365322e37ae123ca11778d7080c8e3472a49cbb6469f392bda1a23802542022-08-14 22:09:12287 days 2 hrs ago 0xf893ddffe93ab3bd80f3b1a730ac649c80706bd9Pondsama: Deployer0.00001 MOVR
0x676f1306a7c34e16038356d4eed4c02cc5aee3db47442860320a178006ccc2949099372021-11-16 1:46:18558 days 22 hrs ago 0xe41509e3034f3f1c7ea918423da60b2ba6f14087Pondsama: Deployer0.0000049 MOVR
0x795acf44155118f3f9ec509331f5f344b451dbcd906f61184ea967ff3b67a00a9098402021-11-16 1:18:30558 days 23 hrs ago 0xe41509e3034f3f1c7ea918423da60b2ba6f14087Pondsama: Deployer0.000049 MOVR
0xa1edf9a195a77310d7d102cc25198de0481043d66602f50b7c367a3266b094289097412021-11-16 0:54:48558 days 23 hrs ago 0xe41509e3034f3f1c7ea918423da60b2ba6f14087Pondsama: Deployer0.000196 MOVR
0x4884b520ac7f5be2f1abe2d04e78262d84c27ea453151751a4936c87bb140bc79096452021-11-16 0:31:06558 days 23 hrs ago 0xe41509e3034f3f1c7ea918423da60b2ba6f14087Pondsama: Deployer0.00096 MOVR
0x827bd8846c2a8c8c8f72b582962ce5545feae317ac437d23dd9dab6739b257719094082021-11-15 23:25:42559 days 1 hr ago 0xe41509e3034f3f1c7ea918423da60b2ba6f14087Pondsama: Deployer0.00001958 MOVR
0x3e793771402bdf94447c1d240aad1a3caf0fd1e3c80af0514d778da0bfd6c2f79082242021-11-15 17:50:06559 days 6 hrs ago 0xe41509e3034f3f1c7ea918423da60b2ba6f14087Pondsama: Deployer0.0979 MOVR
0x87f350ac11e03b3fb4ff283e2d218756ea020465cbe8bdd2f40652778e69e5459081672021-11-15 17:34:49559 days 6 hrs ago 0xe41509e3034f3f1c7ea918423da60b2ba6f14087Pondsama: Deployer0.00979 MOVR
0xf6b33f5357241d92614a12d15f247c3a56940d8ecf271fd65c99f5e185a3f0795634822021-09-19 22:01:06616 days 2 hrs ago 0xe41509e3034f3f1c7ea918423da60b2ba6f14087Pondsama: Deployer4.8 MOVR
[ Download CSV Export 
Loading

Contract Name:
0

Compiler Version
0

Optimization Enabled:
0

Other Settings:
-NA-
Block Transaction Gas Used Reward
Age Block Fee Address BC Fee Address Voting Power Jailed Incoming
Block Uncle Number Difficulty Gas Used Reward
Loading
Make sure to use the "Vote Down" button for any spammy posts, and the "Vote Up" for interesting conversations.